ERTS 1

operational
NORAD ID: 6126 Int'l Des: 1972-058 Owner: GSFC Country: US
LEOCIRCULARRETROGRADESSO

About ERTS 1

Description loading...

Live Position

Loading 3D Globe...

Upcoming Passes

Altitude History

Altitude vs Time

uPlot chart will show altitude changes over time

Two-Line Element Set

1 6126U 72058A 26061.09481853 -.00000114 00000-0 -47690-4 0 9998
2 6126 99.3497 88.9835 0007872 181.4107 178.7034 13.97829944732991
Epoch: Mar 2, 2026 • Age: 41 hours

Current Status

Altitude 898.0 km
Velocity 7.41 km/s
Sub-Earth Point 17.41°N, 140.56°W
Type other

Large Constellations

Loading constellations...